QPF
0.01 0.00 0.00 0.00 0.00 0.01 0.01 0.01 0.02 0.02 0.02 0.02 0.01 0.01 0.01 0.01 0.02 0.01 0.01 0.03 0.04 0.04 0.05 0.04 0.05 0.06 0.05 0.05 0.04 0.03 0.03 0.03 0.03 0.03 0.04 0.03 0.03 0.03 0.02 0.02 0.02 0.01 0.01
0.01 0.00 0.00 0.00 0.01 0.01 0.01 0.01 0.02 0.02 0.02 0.02 0.01 0.02 0.02 0.01 0.01 0.01 0.02 0.02 0.04 0.04 0.05 0.05 0.05 0.05 0.06 0.05 0.05 0.04 0.04 0.04 0.05 0.04 0.04 0.04 0.04 0.04 0.03 0.03 0.02 0.02 0.01
0.01 0.00 0.01 0.01 0.01 0.01 0.01 0.01 0.02 0.02 0.01 0.02 0.02 0.02 0.03 0.01 0.02 0.02 0.02 0.01 0.01 0.03 0.04 0.05 0.05 0.05 0.06 0.06 0.06 0.07 0.06 0.05 0.04 0.04 0.05 0.04 0.04 0.04 0.04 0.04 0.03 0.02 0.01
0.01 0.01 0.01 0.01 0.01 0.01 0.01 0.01 0.01 0.02 0.02 0.02 0.03 0.03 0.02 0.03 0.03 0.02 0.01 0.01 0.01 0.01 0.03 0.05 0.05 0.05 0.05 0.06 0.07 0.07 0.08 0.06 0.04 0.04 0.04 0.05 0.05 0.05 0.04 0.05 0.04 0.03 0.02
0.02 0.01 0.01 0.02 0.02 0.01 0.01 0.01 0.01 0.01 0.02 0.02 0.03 0.05 0.04 0.05 0.04 0.03 0.01 0.01 0.01 0.01 0.02 0.05 0.07 0.07 0.08 0.08 0.08 0.09 0.09 0.08 0.05 0.04 0.04 0.04 0.05 0.05 0.04 0.04 0.05 0.04 0.03
0.03 0.02 0.01 0.02 0.01 0.02 0.02 0.02 0.01 0.01 0.02 0.02 0.03 0.03 0.03 0.04 0.04 0.03 0.02 0.02 0.01 0.01 0.02 0.03 0.05 0.06 0.07 0.08 0.07 0.08 0.09 0.09 0.07 0.05 0.04 0.04 0.05 0.04 0.03 0.03 0.03 0.03 0.04
0.03 0.02 0.02 0.01 0.01 0.02 0.03 0.03 0.02 0.02 0.02 0.01 0.02 0.02 0.02 0.02 0.02 0.03 0.03 0.02 0.02 0.03 0.03 0.02 0.02 0.03 0.04 0.06 0.07 0.08 0.09 0.09 0.08 0.06 0.06 0.05 0.05 0.04 0.03 0.03 0.03 0.02 0.03
0.03 0.02 0.02 0.02 0.01 0.02 0.03 0.03 0.02 0.02 0.01 0.01 0.01 0.02 0.02 0.01 0.02 0.02 0.02 0.01 0.02 0.03 0.03 0.04 0.03 0.01 0.01 0.03 0.04 0.06 0.07 0.06 0.06 0.05 0.05 0.05 0.04 0.03 0.03 0.03 0.03 0.02 0.02
0.04 0.03 0.03 0.03 0.03 0.02 0.02 0.01 0.01 0.01 0.00 0.00 0.01 0.01 0.01 0.01 0.01 0.01 0.01 0.01 0.01 0.01 0.02 0.03 0.03 0.01 0.01 0.01 0.01 0.02 0.03 0.03 0.04 0.05 0.05 0.04 0.03 0.03 0.03 0.03 0.03 0.03 0.02
0.03 0.03 0.03 0.02 0.03 0.03 0.02 0.02 0.01 0.00 0.00 0.00 0.00 0.00 0.00 0.00 0.00 0.01 0.01 0.00 0.01 0.01 0.02 0.02 0.02 0.01 0.01 0.00 0.00 0.00 0.00 0.01 0.02 0.03 0.03 0.04 0.03 0.02 0.03 0.03 0.03 0.03 0.03
0.04 0.04 0.03 0.02 0.02 0.03 0.03 0.02 0.01 0.01 0.00 0.00 0.00 0.01 0.01 0.00 0.00 0.00 0.00 0.00 0.00 0.01 0.01 0.02 0.01 0.01 0.00 0.00 0.00 0.01 0.01 0.01 0.01 0.02 0.02 0.02 0.02 0.02 0.02 0.03 0.03 0.03 0.04
0.06 0.04 0.03 0.02 0.01 0.02 0.03 0.01 0.01 0.01 0.00 0.00 0.00 0.00 0.01 0.00 0.00 0.00 0.00 0.00 0.00 0.00 0.01 0.01 0.00 0.00 0.00 0.00 0.01 0.01 0.01 0.01 0.01 0.01 0.01 0.01 0.01 0.02 0.02 0.02 0.03 0.03 0.04
0.03 0.03 0.02 0.01 0.01 0.02 0.02 0.01 0.01 0.01 0.00 0.00 0.00 0.00 0.00 0.01 0.00 0.00 0.00 0.00 0.00 0.00 0.00 0.00 0.00 0.00 0.01 0.01 0.01 0.01 0.01 0.01 0.00 0.00 0.00 0.01 0.01 0.02 0.01 0.01 0.01 0.02 0.03
0.02 0.02 0.02 0.01 0.01 0.01 0.01 0.01 0.01 0.00 0.00 0.00 0.00 0.00 0.00 0.00 0.00 0.00 0.00 0.00 0.00 0.00 0.00 0.00 0.00 0.00 0.01 0.01 0.01 0.01 0.00 0.00 0.00 0.00 0.00 0.00 0.00 0.01 0.01 0.01 0.01 0.01 0.01
0.03 0.03 0.02 0.02 0.01 0.01 0.01 0.01 0.00 0.00 0.00 0.00 0.00 0.00 0.00 0.00 0.00 0.00 0.00 0.00 0.00 0.00 0.00 0.00 0.00 0.00 0.00 0.00 0.00 0.00 0.00 0.00 0.00 0.00 0.00 0.00 0.00 0.00 0.01 0.00 0.00 0.00 0.00
0.03 0.03 0.03 0.03 0.02 0.02 0.01 0.01 0.01 0.01 0.01 0.00 0.00 0.00 0.00 0.00 0.00 0.00 0.00 0.00 0.00 0.00 0.00 0.00 0.00 0.00 0.00 0.00 0.00 0.00 0.00 0.00 0.00 0.00 0.00 0.00 0.00 0.00 0.00 0.00 0.00 0.00 0.00
0.03 0.03 0.03 0.04 0.03 0.02 0.01 0.02 0.02 0.01 0.01 0.01 0.00 0.00 0.00 0.00 0.00 0.00 0.00 0.00 0.00 0.00 0.00 0.00 0.00 0.00 0.00 0.00 0.00 0.00 0.00 0.00 0.00 0.00 0.00 0.00 0.00 0.00 0.00 0.00 0.00 0.00 0.00
0.06 0.07 0.05 0.05 0.05 0.04 0.03 0.02 0.03 0.02 0.02 0.01 0.01 0.00 0.00 0.00 0.00 0.00 0.00 0.00 0.00 0.00 0.00 0.00 0.00 0.00 0.00 0.00 0.00 0.00 0.00 0.00 0.00 0.00 0.00 0.00 0.00 0.00 0.00 0.00 0.00 0.00 0.00
0.08 0.09 0.08 0.05 0.04 0.04 0.04 0.03 0.03 0.02 0.02 0.01 0.00 0.00 0.00 0.00 0.00 0.01 0.01 0.00 0.00 0.00 0.00 0.00 0.00 0.00 0.00 0.00 0.00 0.00 0.00 0.00 0.00 0.00 0.00 0.00 0.00 0.00 0.00 0.00 0.00 0.00 0.00
0.08 0.08 0.08 0.07 0.05 0.04 0.04 0.03 0.03 0.02 0.02 0.01 0.01 0.00 0.00 0.01 0.01 0.01 0.01 0.00 0.00 0.00 0.00 0.00 0.00 0.00 0.00 0.00 0.00 0.00 0.00 0.00 0.00 0.00 0.00 0.00 0.00 0.00 0.00 0.00 0.00 0.00 0.00
0.07 0.07 0.08 0.08 0.07 0.06 0.05 0.04 0.04 0.03 0.02 0.02 0.01 0.01 0.01 0.01 0.01 0.01 0.01 0.00 0.01 0.00 0.00 0.00 0.00 0.00 0.00 0.00 0.00 0.00 0.00 0.00 0.00 0.00 0.00 0.00 0.00 0.00 0.00 0.00 0.00 0.00 0.00
0.09 0.08 0.08 0.09 0.09 0.08 0.06 0.05 0.04 0.03 0.02 0.02 0.01 0.01 0.01 0.01 0.01 0.01 0.01 0.01 0.01 0.01 0.00 0.01 0.00 0.00 0.00 0.00 0.00 0.00 0.00 0.00 0.00 0.00 0.00 0.00 0.00 0.00 0.00 0.00 0.00 0.00 0.00
0.08 0.08 0.07 0.08 0.08 0.08 0.08 0.07 0.06 0.04 0.04 0.03 0.02 0.02 0.02 0.02 0.02 0.01 0.01 0.01 0.01 0.01 0.01 0.01 0.01 0.01 0.01 0.01 0.01 0.00 0.00 0.00 0.00 0.00 0.00 0.00 0.00 0.00 0.00 0.00 0.00 0.00 0.00
0.06 0.07 0.07 0.07 0.08 0.09 0.09 0.09 0.09 0.06 0.05 0.05 0.04 0.04 0.03 0.03 0.03 0.02 0.02 0.02 0.01 0.01 0.01 0.02 0.01 0.01 0.01 0.01 0.01 0.01 0.00 0.00 0.00 0.00 0.00 0.00 0.00 0.00 0.00 0.00 0.00 0.00 0.00
0.05 0.05 0.05 0.06 0.07 0.07 0.08 0.08 0.08 0.06 0.05 0.04 0.04 0.04 0.03 0.03 0.04 0.03 0.02 0.01 0.01 0.01 0.01 0.01 0.01 0.01 0.01 0.02 0.01 0.01 0.00 0.00 0.00 0.00 0.00 0.00 0.00 0.00 0.00 0.00 0.00 0.00 0.00
0.07 0.07 0.07 0.07 0.07 0.07 0.08 0.09 0.08 0.06 0.05 0.05 0.06 0.05 0.06 0.07 0.06 0.05 0.03 0.02 0.02 0.02 0.02 0.01 0.01 0.01 0.02 0.02 0.01 0.01 0.01 0.01 0.01 0.00 0.00 0.00 0.00 0.00 0.00 0.00 0.00 0.00 0.00
MSLP
1016.20 1016.33 1016.40 1016.46 1016.52 1016.61 1016.73 1016.91 1017.11 1017.34 1017.58 1017.80 1018.00 1018.18 1018.35 1018.51 1018.66 1018.82 1018.98 1019.15 1019.30 1019.45 1019.59 1019.72 1019.85 1019.99 1020.14 1020.30 1020.47 1020.65 1020.83 1021.03 1021.24 1021.46 1021.69 1021.94 1022.20 1022.47 1022.72 1022.96 1023.16 1023.31 1023.44
1016.34 1016.45 1016.52 1016.59 1016.67 1016.79 1016.95 1017.15 1017.39 1017.66 1017.93 1018.18 1018.41 1018.61 1018.77 1018.91 1019.03 1019.14 1019.25 1019.37 1019.49 1019.63 1019.77 1019.92 1020.08 1020.24 1020.41 1020.57 1020.74 1020.90 1021.06 1021.24 1021.43 1021.64 1021.88 1022.15 1022.42 1022.70 1022.96 1023.18 1023.36 1023.49 1023.59
1016.38 1016.50 1016.60 1016.71 1016.83 1016.99 1017.19 1017.43 1017.71 1018.00 1018.30 1018.58 1018.83 1019.04 1019.20 1019.32 1019.40 1019.47 1019.52 1019.59 1019.67 1019.77 1019.90 1020.06 1020.23 1020.42 1020.60 1020.78 1020.94 1021.09 1021.23 1021.39 1021.56 1021.77 1022.01 1022.28 1022.56 1022.85 1023.11 1023.33 1023.50 1023.62 1023.70
1016.35 1016.50 1016.65 1016.82 1017.00 1017.21 1017.46 1017.73 1018.03 1018.34 1018.65 1018.94 1019.21 1019.42 1019.58 1019.69 1019.74 1019.76 1019.77 1019.78 1019.81 1019.88 1019.99 1020.14 1020.32 1020.51 1020.70 1020.88 1021.04 1021.19 1021.32 1021.46 1021.61 1021.81 1022.04 1022.30 1022.59 1022.88 1023.14 1023.37 1023.54 1023.66 1023.73
1016.28 1016.48 1016.70 1016.93 1017.18 1017.44 1017.72 1018.01 1018.31 1018.62 1018.93 1019.22 1019.48 1019.70 1019.87 1019.97 1020.02 1020.01 1019.98 1019.95 1019.93 1019.96 1020.04 1020.16 1020.33 1020.52 1020.72 1020.90 1021.06 1021.20 1021.32 1021.44 1021.58 1021.75 1021.97 1022.22 1022.49 1022.77 1023.03 1023.26 1023.43 1023.56 1023.65
1016.20 1016.46 1016.74 1017.05 1017.36 1017.66 1017.96 1018.24 1018.53 1018.81 1019.09 1019.37 1019.63 1019.86 1020.03 1020.15 1020.20 1020.20 1020.15 1020.09 1020.04 1020.03 1020.07 1020.16 1020.31 1020.49 1020.68 1020.86 1021.01 1021.15 1021.26 1021.36 1021.48 1021.63 1021.82 1022.04 1022.30 1022.56 1022.80 1023.02 1023.20 1023.34 1023.45
1016.17 1016.47 1016.81 1017.17 1017.52 1017.85 1018.15 1018.41 1018.66 1018.90 1019.15 1019.40 1019.65 1019.89 1020.09 1020.23 1020.31 1020.33 1020.29 1020.22 1020.15 1020.10 1020.10 1020.16 1020.27 1020.43 1020.60 1020.77 1020.93 1021.05 1021.16 1021.25 1021.36 1021.48 1021.64 1021.83 1022.05 1022.28 1022.50 1022.70 1022.88 1023.02 1023.14
1016.17 1016.50 1016.89 1017.28 1017.66 1018.00 1018.28 1018.52 1018.72 1018.91 1019.12 1019.34 1019.58 1019.83 1020.05 1020.24 1020.37 1020.42 1020.40 1020.34 1020.26 1020.19 1020.15 1020.17 1020.25 1020.38 1020.53 1020.69 1020.83 1020.96 1021.06 1021.15 1021.24 1021.34 1021.47 1021.63 1021.81 1022.00 1022.19 1022.36 1022.52 1022.66 1022.79
1016.20 1016.56 1016.96 1017.38 1017.77 1018.11 1018.37 1018.58 1018.73 1018.88 1019.04 1019.23 1019.46 1019.72 1019.98 1020.21 1020.38 1020.48 1020.50 1020.46 1020.38 1020.29 1020.23 1020.21 1020.25 1020.34 1020.47 1020.61 1020.75 1020.87 1020.98 1021.07 1021.15 1021.24 1021.35 1021.47 1021.61 1021.76 1021.91 1022.06 1022.19 1022.32 1022.44
1016.23 1016.60 1017.02 1017.45 1017.84 1018.18 1018.43 1018.60 1018.73 1018.83 1018.96 1019.13 1019.35 1019.62 1019.90 1020.17 1020.39 1020.53 1020.58 1020.56 1020.49 1020.39 1020.30 1020.25 1020.26 1020.31 1020.41 1020.53 1020.66 1020.78 1020.90 1020.99 1021.08 1021.17 1021.27 1021.37 1021.48 1021.60 1021.71 1021.82 1021.92 1022.02 1022.12
1016.23 1016.61 1017.04 1017.47 1017.88 1018.21 1018.46 1018.62 1018.73 1018.81 1018.91 1019.06 1019.27 1019.54 1019.84 1020.13 1020.38 1020.55 1020.64 1020.64 1020.57 1020.47 1020.36 1020.28 1020.24 1020.26 1020.33 1020.43 1020.55 1020.67 1020.79 1020.90 1021.00 1021.10 1021.19 1021.29 1021.38 1021.48 1021.56 1021.64 1021.71 1021.78 1021.86
1016.17 1016.56 1017.01 1017.46 1017.88 1018.23 1018.48 1018.65 1018.75 1018.83 1018.91 1019.05 1019.24 1019.50 1019.80 1020.10 1020.36 1020.55 1020.65 1020.66 1020.60 1020.49 1020.37 1020.26 1020.20 1020.18 1020.21 1020.28 1020.38 1020.50 1020.62 1020.74 1020.86 1020.97 1021.08 1021.18 1021.27 1021.36 1021.43 1021.49 1021.54 1021.58 1021.64
1016.04 1016.46 1016.93 1017.40 1017.85 1018.22 1018.49 1018.68 1018.79 1018.87 1018.95 1019.07 1019.25 1019.48 1019.76 1020.05 1020.30 1020.49 1020.60 1020.62 1020.57 1020.46 1020.33 1020.20 1020.10 1020.05 1020.04 1020.08 1020.16 1020.26 1020.37 1020.50 1020.62 1020.75 1020.87 1020.99 1021.10 1021.19 1021.26 1021.31 1021.35 1021.38 1021.41
1015.87 1016.32 1016.82 1017.32 1017.79 1018.19 1018.49 1018.70 1018.83 1018.91 1018.99 1019.10 1019.25 1019.46 1019.71 1019.97 1020.21 1020.39 1020.50 1020.53 1020.48 1020.37 1020.24 1020.10 1019.98 1019.89 1019.85 1019.85 1019.88 1019.95 1020.05 1020.16 1020.28 1020.42 1020.56 1020.69 1020.82 1020.92 1021.00 1021.06 1021.10 1021.12 1021.14
1015.68 1016.17 1016.70 1017.23 1017.72 1018.14 1018.47 1018.70 1018.85 1018.94 1019.02 1019.11 1019.24 1019.41 1019.63 1019.86 1020.07 1020.24 1020.35 1020.39 1020.35 1020.26 1020.13 1019.99 1019.85 1019.74 1019.66 1019.61 1019.60 1019.63 1019.68 1019.77 1019.87 1020.00 1020.14 1020.29 1020.42 1020.54 1020.64 1020.71 1020.75 1020.78 1020.79
1015.52 1016.04 1016.59 1017.14 1017.64 1018.08 1018.42 1018.67 1018.83 1018.93 1019.00 1019.08 1019.19 1019.34 1019.52 1019.72 1019.92 1020.08 1020.19 1020.24 1020.23 1020.15 1020.04 1019.90 1019.76 1019.63 1019.51 1019.42 1019.36 1019.33 1019.34 1019.38 1019.45 1019.55 1019.68 1019.81 1019.95 1020.07 1020.18 1020.25 1020.30 1020.33 1020.34
1015.40 1015.95 1016.51 1017.06 1017.57 1018.00 1018.35 1018.60 1018.76 1018.86 1018.94 1019.01 1019.10 1019.23 1019.39 1019.58 1019.76 1019.93 1020.05 1020.12 1020.13 1020.09 1020.00 1019.88 1019.74 1019.60 1019.46 1019.33 1019.22 1019.14 1019.08 1019.06 1019.08 1019.14 1019.22 1019.32 1019.44 1019.54 1019.64 1019.71 1019.75 1019.77 1019.78
1015.33 1015.89 1016.45 1016.99 1017.48 1017.90 1018.24 1018.49 1018.65 1018.76 1018.83 1018.90 1018.99 1019.12 1019.27 1019.45 1019.63 1019.80 1019.94 1020.03 1020.07 1020.06 1020.00 1019.91 1019.78 1019.64 1019.49 1019.33 1019.18 1019.05 1018.94 1018.86 1018.81 1018.80 1018.82 1018.87 1018.93 1018.99 1019.05 1019.09 1019.12 1019.12 1019.11
1015.28 1015.83 1016.38 1016.91 1017.38 1017.78 1018.10 1018.34 1018.51 1018.61 1018.70 1018.78 1018.87 1019.00 1019.16 1019.33 1019.52 1019.69 1019.84 1019.95 1020.02 1020.03 1020.01 1019.94 1019.84 1019.71 1019.56 1019.40 1019.23 1019.06 1018.90 1018.76 1018.65 1018.56 1018.51 1018.47 1018.46 1018.45 1018.44 1018.43 1018.41 1018.39 1018.36
1015.21 1015.76 1016.29 1016.80 1017.25 1017.63 1017.94 1018.16 1018.33 1018.45 1018.54 1018.64 1018.75 1018.88 1019.04 1019.22 1019.41 1019.58 1019.73 1019.84 1019.92 1019.95 1019.94 1019.90 1019.83 1019.72 1019.59 1019.44 1019.27 1019.09 1018.90 1018.72 1018.55 1018.39 1018.25 1018.12 1018.01 1017.91 1017.82 1017.73 1017.66 1017.59 1017.53
1015.08 1015.62 1016.15 1016.63 1017.07 1017.43 1017.73 1017.95 1018.12 1018.25 1018.36 1018.47 1018.60 1018.75 1018.91 1019.08 1019.26 1019.41 1019.55 1019.65 1019.71 1019.74 1019.74 1019.72 1019.66 1019.59 1019.49 1019.37 1019.22 1019.05 1018.86 1018.65 1018.43 1018.21 1017.98 1017.76 1017.55 1017.35 1017.16 1016.99 1016.85 1016.72 1016.63
1014.87 1015.41 1015.93 1016.41 1016.83 1017.18 1017.47 1017.70 1017.87 1018.02 1018.15 1018.27 1018.41 1018.56 1018.72 1018.88 1019.03 1019.15 1019.25 1019.31 1019.35 1019.36 1019.35 1019.32 1019.29 1019.24 1019.18 1019.10 1018.99 1018.85 1018.67 1018.46 1018.21 1017.94 1017.65 1017.34 1017.04 1016.74 1016.46 1016.20 1015.99 1015.81 1015.68
1014.58 1015.12 1015.64 1016.11 1016.52 1016.87 1017.16 1017.39 1017.57 1017.73 1017.87 1018.01 1018.16 1018.30 1018.45 1018.59 1018.69 1018.77 1018.82 1018.83 1018.81 1018.78 1018.74 1018.71 1018.68 1018.65 1018.63 1018.59 1018.52 1018.42 1018.28 1018.08 1017.82 1017.52 1017.18 1016.81 1016.43 1016.06 1015.70 1015.38 1015.10 1014.88 1014.72
1014.22 1014.77 1015.28 1015.75 1016.16 1016.50 1016.78 1017.01 1017.20 1017.36 1017.51 1017.65 1017.80 1017.95 1018.08 1018.18 1018.25 1018.28 1018.27 1018.21 1018.14 1018.06 1017.98 1017.92 1017.88 1017.87 1017.86 1017.86 1017.83 1017.77 1017.65 1017.48 1017.23 1016.93 1016.56 1016.16 1015.74 1015.31 1014.90 1014.53 1014.22 1013.97 1013.79
1013.84 1014.38 1014.89 1015.35 1015.75 1016.08 1016.35 1016.56 1016.75 1016.91 1017.06 1017.21 1017.36 1017.50 1017.62 1017.70 1017.74 1017.72 1017.66 1017.56 1017.43 1017.29 1017.17 1017.08 1017.02 1016.99 1016.99 1016.99 1016.99 1016.95 1016.86 1016.71 1016.48 1016.18 1015.82 1015.41 1014.98 1014.54 1014.11 1013.73 1013.40 1013.14 1012.95
1013.48 1014.01 1014.51 1014.94 1015.32 1015.62 1015.87 1016.07 1016.24 1016.40 1016.55 1016.71 1016.87 1017.01 1017.13 1017.21 1017.23 1017.20 1017.10 1016.96 1016.79 1016.62 1016.45 1016.31 1016.22 1016.16 1016.14 1016.13 1016.12 1016.08 1016.00 1015.86 1015.65 1015.37 1015.02 1014.64 1014.22 1013.80 1013.39 1013.02 1012.71 1012.45 1012.27
Thickness
5737 5736 5735 5734 5734 5733 5733 5732 5731 5731 5729 5728 5727 5726 5724 5723 5722 5720 5719 5718 5716 5715 5714 5712 5710 5709 5707 5706 5705 5703 5702 5701 5700 5699 5698 5697 5696 5695 5695 5694 5693 5693 5692
5736 5735 5734 5733 5733 5732 5731 5731 5730 5729 5728 5727 5726 5725 5723 5722 5720 5719 5718 5717 5716 5714 5713 5711 5710 5708 5707 5706 5704 5702 5701 5700 5699 5698 5697 5696 5695 5694 5693 5693 5692 5692 5691
5735 5734 5733 5732 5731 5731 5731 5730 5729 5728 5727 5727 5725 5724 5722 5721 5719 5718 5717 5716 5715 5714 5712 5711 5709 5708 5706 5705 5704 5702 5700 5699 5698 5697 5696 5695 5694 5693 5692 5692 5691 5691 5690
5734 5733 5732 5731 5730 5730 5730 5729 5728 5726 5725 5725 5724 5723 5721 5720 5718 5717 5716 5715 5714 5713 5712 5710 5709 5708 5706 5705 5703 5702 5700 5698 5697 5696 5695 5695 5694 5693 5692 5691 5691 5690 5689
5733 5732 5731 5730 5729 5729 5729 5728 5726 5725 5723 5722 5722 5721 5720 5719 5717 5716 5715 5714 5713 5712 5711 5710 5709 5708 5706 5705 5703 5701 5700 5698 5697 5696 5695 5694 5693 5692 5692 5691 5690 5689 5689
5732 5731 5730 5729 5728 5728 5727 5726 5725 5724 5722 5721 5720 5718 5717 5717 5716 5715 5715 5714 5713 5712 5711 5710 5708 5707 5706 5704 5703 5701 5700 5698 5697 5696 5695 5694 5693 5692 5691 5690 5689 5689 5688
5731 5730 5729 5728 5727 5727 5726 5725 5723 5722 5720 5719 5716 5713 5714 5715 5715 5715 5714 5714 5713 5712 5711 5710 5708 5707 5705 5704 5702 5701 5699 5698 5696 5695 5694 5693 5693 5692 5691 5690 5689 5688 5687
5730 5730 5729 5728 5727 5726 5724 5724 5723 5720 5719 5718 5715 5710 5707 5708 5712 5714 5713 5713 5713 5712 5710 5709 5708 5706 5705 5703 5702 5701 5699 5698 5696 5695 5694 5693 5692 5691 5690 5689 5689 5688 5687
5729 5729 5728 5728 5727 5726 5724 5723 5723 5720 5717 5716 5716 5712 5706 5703 5706 5710 5712 5713 5712 5711 5710 5709 5708 5707 5705 5703 5702 5701 5699 5698 5697 5695 5694 5693 5692 5691 5689 5688 5688 5687 5686
5728 5728 5728 5727 5726 5725 5724 5724 5723 5722 5719 5715 5714 5714 5713 5711 5706 5705 5708 5711 5711 5711 5710 5709 5708 5707 5705 5704 5702 5701 5700 5698 5697 5696 5694 5693 5691 5690 5689 5688 5687 5686 5686
5727 5727 5727 5726 5725 5725 5724 5723 5722 5721 5720 5718 5716 5714 5712 5710 5709 5706 5704 5706 5708 5710 5710 5709 5708 5706 5705 5704 5702 5701 5700 5698 5697 5695 5694 5692 5691 5689 5688 5687 5686 5685 5685
5725 5725 5725 5725 5725 5724 5724 5723 5722 5721 5720 5719 5718 5716 5714 5711 5709 5707 5705 5704 5704 5707 5708 5708 5708 5707 5706 5704 5703 5702 5700 5698 5696 5695 5693 5691 5690 5689 5687 5686 5685 5684 5684
5723 5724 5724 5724 5723 5723 5723 5722 5721 5721 5720 5719 5718 5717 5716 5715 5714 5710 5707 5704 5703 5704 5706 5708 5708 5707 5706 5705 5703 5702 5700 5698 5696 5694 5692 5691 5689 5688 5687 5685 5684 5683 5682
5725 5724 5724 5723 5723 5723 5722 5721 5720 5720 5719 5719 5718 5717 5716 5715 5714 5713 5710 5705 5701 5700 5702 5705 5707 5707 5706 5705 5704 5702 5700 5698 5696 5694 5692 5690 5689 5687 5686 5684 5683 5681 5680
5725 5724 5723 5722 5722 5722 5721 5720 5719 5719 5718 5717 5717 5716 5715 5715 5714 5713 5711 5709 5704 5698 5698 5702 5704 5706 5705 5704 5703 5701 5699 5697 5695 5693 5691 5689 5688 5686 5685 5683 5682 5680 5679
5726 5724 5722 5722 5721 5720 5719 5719 5718 5717 5716 5716 5715 5714 5714 5713 5712 5711 5710 5708 5706 5703 5699 5701 5702 5703 5703 5703 5701 5699 5697 5696 5694 5692 5690 5688 5687 5685 5684 5682 5681 5679 5678
5725 5723 5723 5721 5720 5719 5718 5717 5716 5715 5715 5714 5713 5713 5712 5711 5710 5709 5708 5706 5704 5702 5699 5699 5699 5700 5699 5699 5698 5696 5695 5693 5692 5691 5689 5687 5686 5684 5683 5681 5679 5678 5677
5725 5724 5722 5720 5719 5718 5717 5716 5715 5714 5714 5712 5712 5711 5710 5709 5707 5706 5705 5703 5702 5700 5698 5696 5696 5696 5696 5695 5694 5693 5692 5691 5689 5688 5687 5686 5684 5682 5681 5679 5677 5676 5674
5724 5722 5721 5719 5718 5718 5716 5716 5715 5714 5713 5712 5711 5709 5708 5707 5705 5703 5702 5701 5699 5698 5696 5694 5692 5692 5691 5690 5689 5689 5688 5687 5686 5686 5684 5683 5682 5680 5678 5676 5674 5673 5671
5723 5722 5720 5719 5718 5717 5716 5715 5714 5712 5711 5710 5709 5708 5707 5706 5704 5702 5700 5698 5696 5694 5692 5690 5688 5687 5686 5685 5684 5684 5683 5683 5682 5682 5681 5680 5678 5677 5675 5673 5671 5670 5668
5723 5722 5720 5718 5717 5717 5716 5714 5713 5711 5709 5708 5707 5706 5706 5704 5703 5701 5699 5697 5694 5691 5688 5686 5684 5683 5682 5681 5680 5679 5678 5678 5677 5676 5676 5675 5674 5672 5670 5669 5667 5665 5663
5721 5720 5719 5718 5717 5717 5716 5714 5712 5710 5708 5706 5705 5704 5703 5702 5701 5699 5698 5696 5693 5689 5686 5683 5682 5679 5679 5678 5676 5674 5672 5670 5670 5671 5669 5669 5667 5666 5665 5663 5662 5660 5657
5720 5719 5719 5718 5717 5717 5715 5713 5712 5709 5707 5706 5704 5702 5701 5701 5698 5697 5695 5693 5690 5688 5686 5683 5680 5678 5677 5675 5672 5670 5667 5665 5664 5665 5662 5663 5662 5660 5660 5658 5656 5653 5651
5720 5719 5718 5717 5715 5715 5714 5712 5710 5707 5705 5704 5703 5701 5699 5697 5696 5693 5691 5689 5687 5685 5683 5681 5679 5678 5675 5672 5669 5666 5663 5660 5659 5657 5654 5654 5656 5654 5654 5652 5649 5646 5643
5720 5719 5718 5716 5714 5714 5712 5710 5707 5705 5703 5702 5700 5699 5697 5695 5694 5690 5687 5684 5682 5681 5680 5678 5676 5673 5670 5667 5663 5659 5656 5653 5653 5653 5648 5646 5648 5647 5646 5645 5642 5638 5635
5720 5718 5716 5715 5713 5712 5711 5708 5705 5703 5700 5698 5697 5695 5694 5692 5690 5687 5684 5681 5678 5677 5675 5673 5670 5668 5665 5662 5658 5654 5651 5647 5646 5644 5643 5637 5637 5635 5636 5637 5633 5628 5625